Darwin, Northern Territory

7:52 AM ACST on February 09, 2016 (GMT +0930)
Darwin

Weather History for 94120 - October, 2013

Change the Weather History Date:

Friday, October 4, 2013

  Actual Average Record
Temperature  
Mean Temperature 82 °F -  
Max Temperature 93 °F 92 °F - ()
Min Temperature 70 °F 77 °F - ()
Cooling Degree Days 16    
Growing Degree Days 32 (Base 50)    
Moisture  
Dew Point 73 °F    
Average Humidity 71    
Maximum Humidity 89    
Minimum Humidity 31    
Precipitation  
Precipitation 0.00 in 0.11 in - ()
Sea Level Pressure  
Sea Level Pressure 29.85 in    
Wind  
Wind Speed 9 mph ()    
Max Wind Speed 21 mph    
Max Gust Speed -    
Visibility 9.5 miles    
Events Rain    
T = Trace of Precipitation, MM = Missing Value Source: Averaged Metar Reports

Daily Weather History Graph

Daily Weather History Graph

Search for Another Location

Airport or City:

Trip Planner

Search our weather history database for the weather conditions in past years. The results will help you decide how hot, cold, wet, or windy it might be!

Date:

Astronomy

Oct. 04, 2013 Rise Set
Actual Time 6:28 AM ACST 6:42 PM ACST
Civil Twilight 6:06 AM ACST 7:03 PM ACST
Nautical Twilight 5:42 AM ACST 7:28 PM ACST
Astronomical Twilight 5:17 AM ACST 7:53 PM ACST
Moon 5:35 AM ACST (10/4) 6:02 PM ACST (10/4)
Length of Visible Light 12h 56m
Length of Day
12h 14m
Waning Crescent, 1% of the Moon is Illuminated
Oct 4
Waning Crescent
Oct 5
New
Oct 12
First Quarter
Oct 19
Full
Oct 27
Last Quarter

Hourly Weather History & Observations

Time (ACST) Temp. Heat Index Dew Point Humidity Pressure Visibility Wind Dir Wind Speed Gust Speed Precip Events Conditions
12:00 AM 77 °F - 71 °F 76% 29.91 in 19 mi South 11.5 mph - -   Partly Cloudy
12:00 AM 77.0 °F - 71.6 °F 83% 29.92 in 6.2 mi South 11.5 mph - N/A   Mostly Cloudy
12:30 AM 77 °F - 71 °F 76% 29.91 in - SSE 9.2 mph - -  
12:30 AM 77.0 °F - 71.6 °F 83% 29.89 in 6.2 mi SSE 9.2 mph - N/A   Scattered Clouds
1:00 AM 77.0 °F - 71.6 °F 83% 29.89 in 6.2 mi SE 9.2 mph - N/A   Scattered Clouds
1:30 AM 77.0 °F - 71.6 °F 83% 29.86 in 6.2 mi SSE 5.8 mph - N/A Rain Light Rain
2:00 AM 77.0 °F - 73.4 °F 89% 29.86 in 6.2 mi NE 2.3 mph - N/A Rain Light Rain
2:30 AM 77.0 °F - 73.4 °F 89% 29.86 in - West 5.8 mph - N/A   Clear
3:00 AM 77 °F - 73 °F 85% 29.85 in 12 mi WSW 6.9 mph - -   Haze
3:00 AM 77.0 °F - 73.4 °F 89% 29.86 in - WSW 6.9 mph - N/A   Clear
3:30 AM 77 °F - 73 °F 85% 29.85 in - SSW 6.9 mph - -  
3:30 AM 77.0 °F - 73.4 °F 89% 29.83 in - SSW 6.9 mph - N/A   Clear
4:00 AM 77.0 °F - 73.4 °F 89% 29.83 in - SW 5.8 mph - N/A   Clear
4:30 AM 78.8 °F - 73.4 °F 83% 29.86 in - SW 5.8 mph - N/A   Clear
5:00 AM 78.8 °F - 73.4 °F 83% 29.86 in - SSW 4.6 mph - N/A   Clear
5:30 AM 77.0 °F - 73.4 °F 89% 29.86 in - South 3.5 mph - N/A   Clear
6:00 AM 77 °F - 74 °F 87% 29.87 in 16 mi SE 3.5 mph - -   Haze
6:00 AM 77.0 °F - 73.4 °F 89% 29.86 in - SE 3.5 mph - N/A   Clear
6:30 AM 77 °F - 74 °F 87% 29.88 in - East 6.9 mph - -  
6:30 AM 77.0 °F - 73.4 °F 89% 29.89 in - East 6.9 mph - N/A   Clear
7:00 AM 77.0 °F - 73.4 °F 89% 29.89 in - ESE 6.9 mph - N/A   Clear
7:30 AM 78.8 °F - 73.4 °F 83% 29.89 in - ESE 6.9 mph - N/A   Clear
8:00 AM 80.6 °F 85.4 °F 73.4 °F 79% 29.89 in - SSE 8.1 mph - N/A   Clear
8:30 AM 80.6 °F 85.4 °F 73.4 °F 79% 29.92 in - SE 9.2 mph - N/A   Clear
9:00 AM 84 °F - 71 °F 56% 29.92 in 19 mi SSE 10.4 mph - -   Partly Cloudy
9:00 AM 84.2 °F 89.6 °F 71.6 °F 66% 29.92 in - SSE 10.4 mph - N/A   Clear
9:30 AM 85 °F - 69 °F 51% 29.92 in - South 10.4 mph - -  
9:30 AM 84.2 °F 88.4 °F 69.8 °F 62% 29.92 in - South 10.4 mph - N/A   Clear
10:00 AM 86.0 °F 90.4 °F 69.8 °F 58% 29.92 in - SSE 10.4 mph - N/A   Clear
10:30 AM 87.8 °F 92.6 °F 69.8 °F 55% 29.92 in 6.2 mi South 8.1 mph - N/A   Partly Cloudy
11:00 AM 89.6 °F 93.4 °F 68.0 °F 49% 29.89 in 6.2 mi SSE 10.4 mph - N/A   Partly Cloudy
11:30 AM 89.6 °F 93.4 °F 68.0 °F 49% 29.89 in 6.2 mi SSE 11.5 mph - N/A   Partly Cloudy
12:00 PM 90 °F - 67 °F 37% 29.88 in 19 mi SE 11.5 mph - -   Partly Cloudy
12:00 PM 91.4 °F 94.0 °F 66.2 °F 43% 29.89 in 6.2 mi SE 11.5 mph - N/A   Partly Cloudy
12:30 PM 92 °F - 65 °F 31% 29.86 in - South 10.4 mph - -  
12:30 PM 91.4 °F 93.2 °F 64.4 °F 41% 29.86 in - South 10.4 mph - N/A   Clear
1:00 PM 93.2 °F 94.9 °F 64.4 °F 38% 29.83 in - SW 10.4 mph - N/A   Clear
2:00 PM 89.6 °F 96.2 °F 71.6 °F 55% 29.80 in - NW 17.3 mph - N/A   Clear
2:30 PM 89.6 °F 96.2 °F 71.6 °F 55% 29.77 in - NW 17.3 mph - N/A   Clear
3:00 PM 89.6 °F 96.2 °F 71.6 °F 55% 29.77 in - NW 16.1 mph - N/A   Clear
3:30 PM 89 °F - 72 °F 49% 29.77 in - WNW 19.6 mph - -  
3:30 PM 89.6 °F 98.2 °F 73.4 °F 59% 29.77 in - WNW 19.6 mph - N/A   Clear
4:00 PM 89.6 °F 96.2 °F 71.6 °F 55% 29.74 in 6.2 mi NW 19.6 mph - N/A   Partly Cloudy
4:30 PM 87.8 °F 95.6 °F 73.4 °F 62% 29.74 in 6.2 mi WNW 20.7 mph - N/A   Partly Cloudy
5:00 PM 86.0 °F 95.1 °F 75.2 °F 70% 29.74 in 6.2 mi WNW 18.4 mph - N/A   Partly Cloudy
5:30 PM 86.0 °F 95.1 °F 75.2 °F 70% 29.77 in 6.2 mi WNW 17.3 mph - N/A   Partly Cloudy
6:00 PM 85 °F - 75 °F 65% 29.77 in 19 mi WNW 15.0 mph - -   Partly Cloudy
6:00 PM 86.0 °F 95.1 °F 75.2 °F 70% 29.77 in 6.2 mi WNW 15.0 mph - N/A   Partly Cloudy
6:30 PM 85 °F - 74 °F 63% 29.78 in - West 12.7 mph - -  
6:30 PM 84.2 °F 92.3 °F 75.2 °F 74% 29.77 in 6.2 mi West 12.7 mph - N/A   Partly Cloudy
7:00 PM 84.2 °F 92.3 °F 75.2 °F 74% 29.77 in 6.2 mi West 8.1 mph - N/A   Partly Cloudy
7:30 PM 84.2 °F 92.3 °F 75.2 °F 74% 29.80 in - WSW 11.5 mph - N/A   Clear
8:00 PM 84.2 °F 92.3 °F 75.2 °F 74% 29.80 in - WSW 8.1 mph - N/A   Clear
8:30 PM 84.2 °F 92.3 °F 75.2 °F 74% 29.83 in 6.2 mi WSW 9.2 mph - N/A   Partly Cloudy
9:00 PM 83 °F - 75 °F 72% 29.83 in 19 mi SW 11.5 mph - -   Partly Cloudy
9:00 PM 82.4 °F 89.5 °F 75.2 °F 79% 29.83 in - SW 11.5 mph - N/A   Clear
9:30 PM 83 °F - 76 °F 73% 29.83 in - SW 9.2 mph - -  
9:30 PM 82.4 °F 89.5 °F 75.2 °F 79% 29.83 in - SW 9.2 mph - N/A   Clear
10:00 PM 82.4 °F 90.9 °F 77.0 °F 84% 29.83 in - WSW 6.9 mph - N/A   Clear
10:30 PM 82.4 °F 90.9 °F 77.0 °F 84% 29.83 in - SW 6.9 mph - N/A   Clear
11:00 PM 80.6 °F 87.1 °F 77.0 °F 89% 29.86 in - West 1.2 mph - N/A   Clear
11:30 PM 80.6 °F 87.1 °F 77.0 °F 89% 29.86 in - SW 1.2 mph - N/A   Clear